Date String (YYYY-MM-DD hh:mm:ss) UTC,Instrument flags,absolute air pressure of the measurement (hPa),sample flow rate (lpm),inlet stack bypass flow (lpm),air temperature of the measurement (°C),ambient temperature measured by the external sensor (°C),aerosol sample conditioner tube jacket temperature (°C),OPC LED temperature (°C),internal box temperature (°C),relative humidity of the measurement (%),span deviation,mass concentration of particles derived from Lorenz-Mie calculation of OPC scattering (μg/m³),mass concentration of particles derived from Lorenz-Mie calculation of OPC scattering (μg/m³),mass concentration of particles derived from Lorenz-Mie calculation of OPC scattering (μg/m³)
DateTimeUTC,F1_M11,P_M11,Q1_M11,Q2_M11,T1_M11,T2_M11,T3_M11,T4_M11,T5_M11,U1_M11,ZSPAN_M11,X0_M11,X2_M11,X1_M11
2024-04-25 10:00:00,SystemResetWarning,0824.4,5.01,000.00,026.5,025.7,000.0,035.1,028.3,025.4,0001.9,0026.03,0008.36,0006.00
2024-04-25 10:01:00,SystemResetWarning,0824.4,5.00,000.00,026.5,025.7,000.0,035.1,028.3,025.7,0001.2,0025.67,0008.48,0006.11
2024-04-25 10:02:00,SystemResetWarning,0824.4,5.00,000.00,026.5,025.7,000.0,035.1,028.3,025.8,0001.3,0025.79,0008.55,0006.22
2024-04-25 10:03:00,SystemResetWarning,0824.4,5.00,000.00,026.5,025.7,000.0,035.1,028.3,025.9,0001.7,0027.02,0008.58,0006.30
2024-04-25 10:04:00,SystemResetWarning,0824.4,5.00,000.00,026.5,025.7,000.0,035.1,028.3,026.0,0002.2,0026.77,0008.70,0006.39
2024-04-25 10:05:00,SystemResetWarning,0824.3,5.00,000.00,026.5,025.7,000.0,035.1,028.3,026.3,0002.1,0026.23,0008.88,0006.51
2024-04-25 10:06:00,SystemResetWarning,0824.2,4.99,000.00,026.5,025.7,000.0,035.1,028.3,026.2,0002.5,0026.75,0009.10,0006.65
2024-04-25 10:07:00,SystemResetWarning,0824.1,5.00,000.00,026.5,025.7,000.0,035.1,028.3,026.1,0002.6,0027.82,0009.23,0006.75
2024-04-25 10:08:00,SystemResetWarning,0824.1,5.00,000.00,026.5,025.7,000.0,035.1,028.3,026.1,0002.5,0027.79,0009.34,0006.84
2024-04-25 10:09:00,SystemResetWarning,0824.1,5.00,000.00,026.5,025.7,000.0,035.1,028.3,026.0,0002.6,0028.11,0009.47,0006.94
2024-04-25 10:10:00,SystemResetWarning,0824.1,5.00,000.00,026.5,025.7,000.0,035.1,028.3,026.0,0002.6,0028.67,0009.63,0007.04
2024-04-25 10:11:00,SystemResetWarning,0824.1,5.00,000.00,026.5,025.7,000.0,035.1,028.3,026.1,0002.5,0029.48,0009.74,0007.15
2024-04-25 10:12:00,SystemResetWarning,0824.2,5.00,000.00,026.4,025.7,000.0,035.1,028.3,026.1,0002.3,0029.81,0009.79,0007.18
2024-04-25 10:13:00,SystemResetWarning,0824.3,5.00,000.00,026.4,025.7,000.0,035.1,028.3,026.1,0002.5,0029.93,0009.72,0007.14
2024-04-25 10:14:00,SystemResetWarning,0824.2,5.00,000.00,026.4,025.7,000.0,035.0,028.3,026.1,0002.0,0028.76,0009.70,0007.13
2024-04-25 10:15:00,SystemResetWarning,0824.1,5.00,000.00,026.4,025.7,000.0,035.0,028.3,026.2,0001.9,0028.15,0009.65,0007.13
2024-04-25 10:16:00,SystemResetWarning,0824.2,5.00,000.00,026.4,025.7,000.0,035.0,028.3,026.2,0002.1,0027.77,0009.66,0007.12
2024-04-25 10:17:00,SystemResetWarning,0824.2,5.00,000.00,026.4,025.7,000.0,035.0,028.3,026.1,0001.8,0026.54,0009.64,0007.10
2024-04-25 10:18:00,SystemResetWarning,0824.1,5.00,000.00,026.4,025.7,000.0,035.0,028.3,026.1,0001.4,0026.78,0009.67,0007.10
2024-04-25 10:19:00,SystemResetWarning,0824.1,5.00,000.00,026.4,025.6,000.0,035.0,028.3,026.1,0001.6,0027.28,0009.67,0007.12
2024-04-25 10:20:00,SystemResetWarning,0824.1,5.00,000.00,026.4,025.6,000.0,035.0,028.3,026.2,0001.8,0026.72,0009.60,0007.11
2024-04-25 10:21:00,SystemResetWarning,0824.1,5.00,000.00,026.4,025.6,000.0,035.0,028.2,026.3,0001.9,0026.88,0009.54,0007.09
2024-04-25 10:22:00,SystemResetWarning,0824.2,5.00,000.00,026.4,025.6,000.0,035.0,028.2,026.3,0001.9,0026.39,0009.51,0007.09
2024-04-25 10:23:00,SystemResetWarning,0824.2,5.00,000.00,026.4,025.6,000.0,035.0,028.2,026.4,0002.0,0027.22,0009.47,0007.07
2024-04-25 10:24:00,SystemResetWarning,0824.1,5.00,000.00,026.4,025.6,000.0,035.0,028.2,026.4,0002.0,0026.83,0009.43,0007.07
2024-04-25 10:25:00,SystemResetWarning,0824.2,5.00,000.00,026.4,025.6,000.0,035.0,028.2,026.5,0001.9,0026.90,0009.41,0007.07
2024-04-25 10:26:00,SystemResetWarning,0824.2,5.00,000.00,026.4,025.6,000.0,035.0,028.2,026.4,0001.8,0027.35,0009.40,0007.07
2024-04-25 10:27:00,SystemResetWarning,0824.2,5.01,000.00,026.4,025.6,000.0,035.0,028.2,026.3,0001.6,0027.49,0009.39,0007.07
2024-04-25 10:28:00,SystemResetWarning,0824.2,5.01,000.00,026.4,025.6,000.0,035.0,028.2,026.3,0001.6,0027.03,0009.37,0007.09
2024-04-25 10:29:00,SystemResetWarning,0824.2,4.99,000.00,026.4,025.6,000.0,035.0,028.2,026.3,0001.7,0026.48,0009.37,0007.10
2024-04-25 10:30:00,SystemResetWarning,0824.3,5.00,000.00,026.4,025.6,000.0,035.0,028.2,026.3,0001.5,0025.50,0009.36,0007.12
2024-04-25 10:31:00,SystemResetWarning,0824.4,5.00,000.00,026.4,025.6,000.0,035.0,028.2,026.3,0000.7,0027.06,0009.38,0007.15
2024-04-25 10:32:00,SystemResetWarning,0824.3,4.99,000.00,026.4,025.6,000.0,035.0,028.2,026.3,0000.5,0026.77,0009.45,0007.18
2024-04-25 10:33:00,SystemResetWarning,0824.3,5.00,000.00,026.4,025.6,000.0,035.0,028.2,026.2,0000.5,0026.88,0009.48,0007.19
2024-04-25 10:34:00,SystemResetWarning,0824.4,5.00,000.00,026.4,025.6,000.0,035.0,028.2,026.2,0000.3,0025.80,0009.50,0007.20
2024-04-25 10:35:00,SystemResetWarning,0824.4,4.99,000.00,026.4,025.6,000.0,035.0,028.2,026.1,0000.2,0027.82,0009.51,0007.21
2024-04-25 10:36:00,SystemResetWarning,0824.4,5.00,000.00,026.4,025.6,000.0,035.0,028.2,026.1,0000.4,0027.74,0009.50,0007.22
2024-04-25 10:37:00,SystemResetWarning,0824.4,5.00,000.00,026.4,025.6,000.0,035.0,028.2,026.0,0000.7,0028.13,0009.61,0007.22
2024-04-25 10:38:00,SystemResetWarning,0824.4,5.01,000.00,026.4,025.6,000.0,035.0,028.2,026.0,0000.8,0028.12,0009.70,0007.23
2024-04-25 10:39:00,SystemResetWarning,0824.4,5.01,000.00,026.4,025.6,000.0,035.0,028.2,026.0,0000.7,0028.12,0009.69,0007.24
2024-04-25 10:40:00,SystemResetWarning,0824.4,5.00,000.00,026.4,025.6,000.0,035.0,028.3,026.1,0001.1,0028.45,0009.62,0007.23
2024-04-25 10:41:00,SystemResetWarning,0824.4,5.00,000.00,026.4,025.6,000.0,035.0,028.3,026.1,0001.0,0028.01,0009.61,0007.23
2024-04-25 10:42:00,SystemResetWarning,0824.3,5.00,000.00,026.4,025.6,000.0,035.0,028.3,026.0,0001.6,0026.40,0009.61,0007.22
2024-04-25 10:43:00,SystemResetWarning,0824.4,5.00,000.00,026.4,025.6,000.0,035.0,028.2,026.3,0001.6,0026.54,0009.54,0007.19
2024-04-25 10:44:00,SystemResetWarning,0824.3,5.00,000.00,026.4,025.6,000.0,035.0,028.3,026.6,0001.2,0025.95,0009.52,0007.20
2024-04-25 10:45:00,SystemResetWarning,0824.4,5.00,000.00,026.4,025.6,000.0,035.0,028.2,026.2,0001.6,0025.81,0009.54,0007.20
2024-04-25 10:46:00,SystemResetWarning,0824.4,5.00,000.00,026.4,025.6,000.0,035.0,028.2,026.1,0001.8,0025.10,0009.57,0007.21
2024-04-25 10:47:00,SystemResetWarning,0824.3,5.00,000.00,026.4,025.6,000.0,035.0,028.3,026.0,0001.9,0025.21,0009.61,0007.20
2024-04-25 10:48:00,SystemResetWarning,0824.4,5.00,000.00,026.4,025.6,000.0,035.0,028.3,026.0,0002.0,0024.63,0009.56,0007.21
2024-04-25 10:49:00,SystemResetWarning,0824.4,5.00,000.00,026.4,025.6,000.0,035.0,028.2,026.1,0002.2,0025.19,0009.51,0007.20
2024-04-25 10:50:00,SystemResetWarning,0824.4,5.00,000.00,026.4,025.6,000.0,035.0,028.3,026.0,0002.3,0026.16,0009.49,0007.19
2024-04-25 10:51:00,SystemResetWarning,0824.4,5.01,000.00,026.4,025.7,000.0,035.0,028.3,026.0,0002.0,0026.04,0009.50,0007.19
2024-04-25 10:52:00,SystemResetWarning,0824.4,5.00,000.00,026.4,025.6,000.0,035.0,028.3,025.9,0002.1,0025.59,0009.52,0007.19
2024-04-25 10:53:00,SystemResetWarning,0824.4,4.99,000.00,026.4,025.6,000.0,035.0,028.3,025.9,0002.2,0025.71,0009.54,0007.19
2024-04-25 10:54:00,SystemResetWarning,0824.4,5.00,000.00,026.4,025.6,000.0,035.0,028.3,025.8,0002.0,0026.03,0009.59,0007.20
2024-04-25 10:55:00,SystemResetWarning,0824.4,5.01,000.00,026.4,025.6,000.0,035.0,028.3,025.7,0002.3,0026.35,0009.54,0007.20
2024-04-25 10:56:00,SystemResetWarning,0824.3,5.01,000.00,026.4,025.6,000.0,035.0,028.3,025.8,0002.0,0026.45,0009.49,0007.19
2024-04-25 10:57:00,SystemResetWarning,0824.4,4.98,000.00,026.4,025.6,000.0,035.0,028.3,025.7,0001.8,0025.60,0009.49,0007.22
2024-04-25 10:58:00,SystemResetWarning,0824.4,4.99,000.00,026.4,025.6,000.0,035.0,028.3,025.6,0001.9,0026.10,0009.52,0007.23
2024-04-25 10:59:00,SystemResetWarning,0824.4,5.01,000.00,026.4,025.6,000.0,035.0,028.2,025.7,0001.6,0026.88,0009.52,0007.22
